FENGYUN 1C DEB, 30175

Orbit data source: Space-Track

FENGYUN 1C DEB, 30175 is space debris in SSO originally from a launch on Mon, 10 May 1999 UTC launched from the Taiyaun Space Center, China (TSC). Fengyun 1C debris stems from the Chinese weather satellite Fengyun-1C, which was intentionally destroyed by a Chinese anti-satellite missile in 2007. This event dramatically increased the amount of space debris, with thousands of trackable fragments posing hazards to satellites and human spaceflight. The Fengyun 1C debris cloud has become a focal point in discussions about space sustainability and the need for international regulations to prevent the creation of new debris.

Loading next visibility...
Identifier
30175, 1999-025UG
Orbit
SSO
Country
Flag of CNCN / PRC
Related business
Manufacturer
Unknown
Mission
Spacecraft
Bus & Motor
Unknown
Mass
Unknown
Launch date (UTC)
1999-05-10 (27 years ago)
Launch vehicle
Unknown
Launch site
Taiyaun Space Center, China (TSC)
Object type
Payload
Rocket body
Debris
Shape & HBR
Unknown shape, 0.1 m
Radar Cross Section
Medium (>0.1 m² and <1 m²)

Expand to show TLE details & history
Last TLE update: 10 hours ago

TLE from 10 hours ago
0 FENGYUN 1C DEB
1 30175U 99025UG  26254.12069424  .00000304  00000-0  28932-3 0  9992
2 30175  99.3475 314.1999 0145351 207.8036 181.6392 13.84087119991085
Epoch: 2026-09-11T02:53Z
TLE epoch observation values (Epoch: 2026-09-11T02:53:47.982Z)
Latitude
29.01421°
Longitude
-84.60991°
Altitude
1,059.445 km
Speed
7.271 km/s
True Right ascension
20h 35m 57s
True Declination
28° 52' 28"
Sunlit
Object was in full shadow at epoch
Visualization orbit readout
Latitude
Unknown
Longitude
Unknown
Altitude
Unknown
Speed
Unknown
Apparent Right ascension
Unknown
Apparent Declination
Unknown
Sunlit
N/A
Visualization observer readout
Local Sidereal Time
05:39:12
Azimuth
Unknown
Elevation
Unknown
Doppler factor
Unknown
Orbital elements
Apogee altitude
1,053.13 km
Perigee altitude
840.196 km
Semi-major axis
7,324.8 km
Eccentricity
0.01454
Inclination
99.3475°
RAAN
314.1999°
Arg. of periapsis
207.8036°
True anomaly
181.59241°
Mean anomaly
181.6392°
Eccentric anomaly
181.61572°
Mean motion
3.46218 °/min
Orbital period
103.98 mins
BSTAR
0.00028932
Loading maneuver chart data...
Computing Atmospheric mass density...
Loading historical data...
Loading historical data...
Loading historical data...
Loading historical data...
Loading historical data...
Loading historical data...
Loading historical data...

Documentation

Showing up to 5 results
|